Location: Unspecified
(33.6682°S, 0.0000°E)
Time: 18:52:12
(UTC+00:00)

Tiros 1 despin weight - Pass Details

Date: 19 June 2019
Orbit: 594 x 642 km, 48.2° (Epoch: 20 August)

Event Time Altitude Azimuth Distance (km) Brightness Sun altitude
Rises 12:41:02 0° 280° (W) 2,934 ? 32.1°
Reaches altitude 10° 12:43:35 10° 269° (W) 2,036 ? 32.0°
Maximum altitude 12:47:45 30° 207° (SSW) 1,156 ? 31.8°
Drops below altitude 10° 12:51:57 10° 145° (SE) 2,058 ? 31.7°
Sets 12:54:32 0° 134° (SE) 2,972 ? 31.5°
